Location: Strada George Coșbuc
(47.6577°N, 23.5639°E)
Time: 16:37:47
(UTC+03:00)

ISS - Pass Details

Date: 11 October 2017
Orbit: 400 x 408 km, 51.6° (Epoch: 24 October)

Event Time Altitude Azimuth Distance (km) Brightness Sun altitude
Rises 19:39:16 0° 293° (WNW) 2,327 1.4 -9.9°
Reaches altitude 10° 19:41:21 10° 295° (WNW) 1,466 0.2 -10.2°
Maximum altitude 19:44:38 79° 22° (NNE) 418 -3.9 -10.8°
Enters shadow 19:47:03 17° 108° (ESE) 1,110 -2.2 -11.2°
